Location: ???????
(55.3754°N, 39.3545°E)
Time: 14:54:45
(UTC+00:00)

Cosmos 1821 Rocket - Pass Details

Date: 14 April 2026
Orbit: 945 x 1003 km, 82.9° (Epoch: 17 May)

Event Time Altitude Azimuth Distance (km) Brightness Sun altitude
Exits shadow 18:04:32 - 178° (S) 3,378 6.4 -13.1°
Reaches altitude 10° 18:06:18 10° 177° (S) 2,719 5.9 -13.2°
Maximum altitude 18:12:29 68° 96° (E) 1,058 4.0 -13.9°
Drops below altitude 10° 18:18:47 10° 15° (NNE) 2,774 6.8 -14.6°
Sets 18:21:21 0° 13° (NNE) 3,733 7.5 -14.8°
